Location: Unspecified
(0.0000°N, 0.0000°E)
Time: 15:24:06
(UTC+00:00)

Explorer 11/Cluster Stage 4 - Pass Details

Date: 28 February 2024
Orbit: 465 x 1219 km, 28.8° (Epoch: 24 April)

Event Time Altitude Azimuth Distance (km) Brightness Sun altitude
Rises 20:16:06 0° 252° (WSW) 3,378 11.0 -30.6°
Reaches altitude 10° 20:18:32 10° 258° (WSW) 2,556 10.1 -31.2°
Maximum altitude 20:24:35 49° 332° (NNW) 1,295 7.6 -32.7°
Enters shadow 20:24:40 49° 334° (NNW) 1,297 7.6 -32.7°
